Time,TemperatureF,DewpointF,PressureIn,WindDirection,WindDirectionDegrees,WindSpeedMPH,WindSpeedGustMPH,Humidity,HourlyPrecipIn,Conditions,Clouds,dailyrainin,SoftwareType,DateUTC
2013-06-10 00:00:00,76.9,73.8,30.11,NNE,20,0.0,2.0,90,0.00,,BKN250,0.00,VWS V14.01,2013-06-10 04:00:00,
2013-06-10 00:01:00,76.9,73.8,30.11,NNE,22,0.0,0.0,90,0.00,,SCT037,0.00,VWS V14.01,2013-06-10 04:01:00,
2013-06-10 00:02:00,76.9,73.8,30.11,ESE,112,0.0,4.0,90,0.00,,SCT037,0.00,VWS V14.01,2013-06-10 04:02:00,
2013-06-10 00:07:00,77.0,73.8,30.11,ESE,120,0.0,4.0,90,0.00,,SCT037,0.00,VWS V14.01,2013-06-10 04:07:00,
2013-06-10 00:12:00,77.1,73.6,30.12,ESE,119,0.0,4.0,89,0.00,,SCT037,0.00,VWS V14.01,2013-06-10 04:12:00,
2013-06-10 00:17:00,77.1,73.6,30.12,ESE,115,0.0,4.0,89,0.00,,SCT037,0.00,VWS V14.01,2013-06-10 04:17:00,
2013-06-10 00:22:00,77.1,73.6,30.12,ESE,115,0.0,4.0,89,0.00,,SCT037,0.00,VWS V14.01,2013-06-10 04:22:00,
2013-06-10 00:27:00,77.2,73.7,30.12,ESE,115,0.0,4.0,89,0.00,,SCT037,0.00,VWS V14.01,2013-06-10 04:27:00,
2013-06-10 00:30:00,77.2,73.7,30.12,ESE,115,0.0,4.0,89,0.00,,BKN250,0.00,VWS V14.01,2013-06-10 04:30:00,
2013-06-10 00:32:00,77.1,73.6,30.12,ESE,115,0.0,0.0,89,0.00,,SCT037,0.00,VWS V14.01,2013-06-10 04:32:00,
2013-06-10 00:37:00,77.1,73.6,30.12,ESE,115,0.0,0.0,89,0.00,,,0.00,VWS V14.01,2013-06-10 04:37:00,
2013-06-10 00:42:00,77.1,73.6,30.12,ESE,115,0.0,0.0,89,0.00,,,0.00,VWS V14.01,2013-06-10 04:42:00,
2013-06-10 00:47:00,77.1,73.6,30.11,ESE,121,0.0,2.0,89,0.00,,,0.00,VWS V14.01,2013-06-10 04:47:00,
2013-06-10 00:52:00,77.0,73.5,30.11,SE,126,0.0,2.0,89,0.00,,CLR,0.00,VWS V14.01,2013-06-10 04:52:00,
2013-06-10 00:57:00,77.0,73.5,30.11,SE,125,0.0,2.0,89,0.00,,CLR,0.00,VWS V14.01,2013-06-10 04:57:00,
2013-06-10 01:00:00,77.0,73.5,30.11,SE,126,0.0,2.0,89,0.00,,BKN250,0.00,VWS V14.01,2013-06-10 05:00:00,
2013-06-10 01:02:00,76.9,73.4,30.11,SE,144,0.0,1.0,89,0.00,,CLR,0.00,VWS V14.01,2013-06-10 05:02:00,
2013-06-10 01:07:00,76.9,73.4,30.12,SE,143,0.0,1.0,89,0.00,,CLR,0.00,VWS V14.01,2013-06-10 05:07:00,
2013-06-10 01:12:00,76.9,73.8,30.11,SE,143,0.0,1.0,90,0.00,,CLR,0.00,VWS V14.01,2013-06-10 05:12:00,
2013-06-10 01:17:00,76.8,73.7,30.11,SE,143,0.0,1.0,90,0.00,,CLR,0.00,VWS V14.01,2013-06-10 05:17:00,
2013-06-10 01:22:00,76.7,73.6,30.11,SE,143,0.0,1.0,90,0.00,,CLR,0.00,VWS V14.01,2013-06-10 05:22:00,
2013-06-10 01:27:00,76.7,73.6,30.11,SE,143,0.0,1.0,90,0.00,,CLR,0.00,VWS V14.01,2013-06-10 05:27:00,
2013-06-10 01:30:00,76.6,73.4,30.11,SE,139,0.0,1.0,90,0.00,,BKN250,0.00,VWS V14.01,2013-06-10 05:30:00,
2013-06-10 01:32:00,76.6,73.4,30.11,SE,138,0.0,1.0,90,0.00,,CLR,0.00,VWS V14.01,2013-06-10 05:32:00,
2013-06-10 01:37:00,76.6,73.4,30.11,SE,141,0.0,5.0,90,0.00,,CLR,0.00,VWS V14.01,2013-06-10 05:37:00,
2013-06-10 01:42:00,76.5,73.7,30.10,ESE,117,0.0,5.0,91,0.00,,CLR,0.00,VWS V14.01,2013-06-10 05:42:00,
2013-06-10 01:47:00,76.4,73.6,30.10,ESE,117,0.0,5.0,91,0.00,,CLR,0.00,VWS V14.01,2013-06-10 05:47:00,
2013-06-10 01:52:00,76.4,73.6,30.10,ESE,118,0.0,5.0,91,0.00,,CLR,0.00,VWS V14.01,2013-06-10 05:52:00,
2013-06-10 01:57:00,76.3,73.5,30.10,SE,131,0.0,5.0,91,0.00,,CLR,0.00,VWS V14.01,2013-06-10 05:57:00,
2013-06-10 02:00:00,76.3,73.5,30.10,SE,130,0.0,5.0,91,0.00,,BKN250,0.00,VWS V14.01,2013-06-10 06:00:00,
2013-06-10 02:02:00,76.2,73.4,30.10,SE,130,0.0,1.0,91,0.00,,CLR,0.00,VWS V14.01,2013-06-10 06:02:00,
2013-06-10 02:07:00,76.2,73.4,30.10,SE,130,0.0,1.0,91,0.00,,CLR,0.00,VWS V14.01,2013-06-10 06:07:00,
2013-06-10 02:12:00,76.1,73.3,30.10,SSE,147,0.0,1.0,91,0.00,,CLR,0.00,VWS V14.01,2013-06-10 06:12:00,
2013-06-10 02:17:00,76.1,73.3,30.10,SE,133,0.0,1.0,91,0.00,,CLR,0.00,VWS V14.01,2013-06-10 06:17:00,
2013-06-10 02:22:00,76.0,73.2,30.10,SE,133,0.0,1.0,91,0.00,,CLR,0.00,VWS V14.01,2013-06-10 06:22:00,
2013-06-10 02:27:00,75.9,73.4,30.10,SE,144,0.0,1.0,92,0.00,,CLR,0.00,VWS V14.01,2013-06-10 06:27:00,
2013-06-10 02:30:00,75.9,73.4,30.10,SE,139,0.0,1.0,92,0.00,,BKN250,0.00,VWS V14.01,2013-06-10 06:30:00,
2013-06-10 02:32:00,75.9,73.4,30.09,SE,139,0.0,0.0,92,0.00,,CLR,0.00,VWS V14.01,2013-06-10 06:32:00,
2013-06-10 02:37:00,75.8,73.3,30.09,SSW,195,0.0,3.0,92,0.00,,CLR,0.00,VWS V14.01,2013-06-10 06:37:00,
2013-06-10 02:42:00,75.8,73.3,30.09,SSW,194,0.0,3.0,92,0.00,,CLR,0.00,VWS V14.01,2013-06-10 06:42:00,
2013-06-10 02:47:00,75.7,73.2,30.09,SSW,193,0.0,3.0,92,0.00,,CLR,0.00,VWS V14.01,2013-06-10 06:47:00,
2013-06-10 02:52:00,75.7,73.2,30.09,SSW,193,0.0,3.0,92,0.00,,CLR,0.00,VWS V14.01,2013-06-10 06:52:00,
2013-06-10 02:57:00,75.6,73.1,30.09,SSW,193,0.0,3.0,92,0.00,,CLR,0.00,VWS V14.01,2013-06-10 06:57:00,
2013-06-10 03:00:00,75.6,73.1,30.09,SSW,193,0.0,3.0,92,0.00,,BKN250,0.00,VWS V14.01,2013-06-10 07:00:00,
2013-06-10 03:02:00,75.6,73.4,30.09,SSW,193,0.0,0.0,93,0.00,,CLR,0.00,VWS V14.01,2013-06-10 07:02:00,
2013-06-10 03:07:00,75.5,73.0,30.09,SSW,193,0.0,1.0,92,0.00,,CLR,0.00,VWS V14.01,2013-06-10 07:07:00,
2013-06-10 03:12:00,75.5,73.3,30.09,SSW,193,0.0,1.0,93,0.00,,CLR,0.00,VWS V14.01,2013-06-10 07:12:00,
2013-06-10 03:17:00,75.4,73.2,30.09,SSW,193,0.0,1.0,93,0.00,,CLR,0.00,VWS V14.01,2013-06-10 07:17:00,
2013-06-10 03:22:00,75.3,73.1,30.09,SSW,193,0.0,1.0,93,0.00,,CLR,0.00,VWS V14.01,2013-06-10 07:22:00,
2013-06-10 03:27:00,75.3,73.1,30.09,SSW,193,0.0,1.0,93,0.00,,CLR,0.00,VWS V14.01,2013-06-10 07:27:00,
2013-06-10 03:30:00,75.2,73.0,30.09,SSW,193,0.0,1.0,93,0.00,,BKN250,0.00,VWS V14.01,2013-06-10 07:30:00,
2013-06-10 03:32:00,75.2,73.0,30.09,SSW,193,0.0,0.0,93,0.00,,CLR,0.00,VWS V14.01,2013-06-10 07:32:00,
2013-06-10 03:37:00,75.1,72.9,30.09,SSW,193,0.0,0.0,93,0.00,,CLR,0.00,VWS V14.01,2013-06-10 07:37:00,
2013-06-10 03:42:00,75.0,72.8,30.09,SSW,193,0.0,0.0,93,0.00,,CLR,0.00,VWS V14.01,2013-06-10 07:42:00,
2013-06-10 03:47:00,74.9,72.7,30.09,SSW,193,0.0,0.0,93,0.00,,CLR,0.00,VWS V14.01,2013-06-10 07:47:00,
2013-06-10 03:52:00,74.9,72.7,30.08,SSW,193,0.0,0.0,93,0.00,,CLR,0.00,VWS V14.01,2013-06-10 07:52:00,
2013-06-10 03:57:00,74.8,72.6,30.08,SSW,193,0.0,0.0,93,0.00,,CLR,0.00,VWS V14.01,2013-06-10 07:57:00,
2013-06-10 04:00:00,74.8,72.6,30.08,SSW,193,0.0,1.0,93,0.00,,BKN250,0.00,VWS V14.01,2013-06-10 08:00:00,
2013-06-10 04:02:00,74.8,72.6,30.08,SSW,193,0.0,0.0,93,0.00,,CLR,0.00,VWS V14.01,2013-06-10 08:02:00,
2013-06-10 04:07:00,74.7,72.6,30.08,SSW,193,0.0,0.0,93,0.00,,CLR,0.00,VWS V14.01,2013-06-10 08:07:00,
2013-06-10 04:12:00,74.6,72.4,30.08,SSW,193,0.0,0.0,93,0.00,,CLR,0.00,VWS V14.01,2013-06-10 08:12:00,
2013-06-10 04:17:00,74.6,72.8,30.08,SSW,193,0.0,0.0,94,0.00,,CLR,0.00,VWS V14.01,2013-06-10 08:17:00,
2013-06-10 04:22:00,74.5,72.7,30.08,SSW,193,0.0,0.0,94,0.00,,CLR,0.00,VWS V14.01,2013-06-10 08:22:00,
2013-06-10 04:27:00,74.4,72.6,30.08,SSW,193,0.0,0.0,94,0.00,,CLR,0.00,VWS V14.01,2013-06-10 08:27:00,
2013-06-10 04:30:00,74.4,72.6,30.08,SSW,193,0.0,0.0,94,0.00,,BKN250,0.00,VWS V14.01,2013-06-10 08:30:00,
2013-06-10 04:32:00,74.5,72.7,30.08,SSW,193,0.0,0.0,94,0.00,,CLR,0.00,VWS V14.01,2013-06-10 08:32:00,
2013-06-10 04:37:00,74.4,72.6,30.08,SSW,193,0.0,0.0,94,0.00,,CLR,0.00,VWS V14.01,2013-06-10 08:37:00,
2013-06-10 04:42:00,74.4,72.6,30.08,SSW,193,0.0,0.0,94,0.00,,CLR,0.00,VWS V14.01,2013-06-10 08:42:00,
2013-06-10 04:47:00,74.3,72.5,30.08,SSW,193,0.0,0.0,94,0.00,,CLR,0.00,VWS V14.01,2013-06-10 08:47:00,
2013-06-10 04:52:00,74.3,72.5,30.08,SSW,193,0.0,0.0,94,0.00,,CLR,0.00,VWS V14.01,2013-06-10 08:52:00,
2013-06-10 04:57:00,74.2,72.4,30.08,SSW,193,0.0,0.0,94,0.00,,CLR,0.00,VWS V14.01,2013-06-10 08:57:00,
2013-06-10 05:00:00,74.2,72.4,30.08,SSW,193,0.0,0.0,94,0.00,,BKN250,0.00,VWS V14.01,2013-06-10 09:00:00,
2013-06-10 05:02:00,74.2,72.4,30.08,SSW,193,0.0,0.0,94,0.00,,CLR,0.00,VWS V14.01,2013-06-10 09:02:00,
2013-06-10 05:07:00,74.1,72.3,30.08,SSW,193,0.0,0.0,94,0.00,,CLR,0.00,VWS V14.01,2013-06-10 09:07:00,
2013-06-10 05:12:00,74.1,72.3,30.09,SSW,193,0.0,0.0,94,0.00,,CLR,0.00,VWS V14.01,2013-06-10 09:12:00,
2013-06-10 05:17:00,74.0,72.2,30.09,SSW,193,0.0,0.0,94,0.00,,CLR,0.00,VWS V14.01,2013-06-10 09:17:00,
2013-06-10 05:22:00,73.9,72.1,30.09,SSW,193,0.0,0.0,94,0.00,,CLR,0.00,VWS V14.01,2013-06-10 09:22:00,
2013-06-10 05:27:00,73.9,72.1,30.09,SSW,193,0.0,0.0,94,0.00,,CLR,0.00,VWS V14.01,2013-06-10 09:27:00,
2013-06-10 05:30:00,73.8,72.0,30.09,SSW,193,0.0,0.0,94,0.00,,BKN250,0.00,VWS V14.01,2013-06-10 09:30:00,
2013-06-10 05:32:00,73.8,72.0,30.09,SSW,193,0.0,0.0,94,0.00,,CLR,0.00,VWS V14.01,2013-06-10 09:32:00,
2013-06-10 05:37:00,73.7,71.9,30.09,SSW,193,0.0,0.0,94,0.00,,CLR,0.00,VWS V14.01,2013-06-10 09:37:00,
2013-06-10 05:42:00,73.6,71.8,30.09,SSW,193,0.0,0.0,94,0.00,,CLR,0.00,VWS V14.01,2013-06-10 09:42:00,
2013-06-10 05:47:00,73.5,71.7,30.09,SSW,193,0.0,0.0,94,0.00,,CLR,0.00,VWS V14.01,2013-06-10 09:47:00,
2013-06-10 05:52:00,73.5,71.7,30.09,SSW,193,0.0,0.0,94,0.00,,CLR,0.00,VWS V14.01,2013-06-10 09:52:00,
2013-06-10 05:57:00,73.5,72.0,30.09,SSW,193,0.0,0.0,95,0.00,,CLR,0.00,VWS V14.01,2013-06-10 09:57:00,
2013-06-10 06:00:00,73.5,72.0,30.09,SSW,193,0.0,0.0,95,0.00,,BKN250,0.00,VWS V14.01,2013-06-10 10:00:00,
2013-06-10 06:02:00,73.5,72.0,30.09,SSW,193,0.0,0.0,95,0.00,,CLR,0.00,VWS V14.01,2013-06-10 10:02:00,
2013-06-10 06:07:00,73.6,72.1,30.09,SSW,193,0.0,0.0,95,0.00,,CLR,0.00,VWS V14.01,2013-06-10 10:07:00,
2013-06-10 06:12:00,73.5,72.0,30.09,SSW,193,0.0,0.0,95,0.00,,CLR,0.00,VWS V14.01,2013-06-10 10:12:00,
2013-06-10 06:17:00,73.5,72.0,30.09,SSW,193,0.0,0.0,95,0.00,,CLR,0.00,VWS V14.01,2013-06-10 10:17:00,
2013-06-10 06:22:00,73.5,72.0,30.09,SSW,193,0.0,0.0,95,0.00,,CLR,0.00,VWS V14.01,2013-06-10 10:22:00,
2013-06-10 06:27:00,73.5,72.0,30.09,SSW,193,0.0,0.0,95,0.00,,CLR,0.00,VWS V14.01,2013-06-10 10:27:00,
2013-06-10 06:30:00,73.5,72.0,30.08,SSW,193,0.0,0.0,95,0.00,,BKN250,0.00,VWS V14.01,2013-06-10 10:30:00,
2013-06-10 06:32:00,73.5,72.0,30.09,SSW,193,0.0,0.0,95,0.00,,CLR,0.00,VWS V14.01,2013-06-10 10:32:00,
2013-06-10 06:37:00,73.6,72.1,30.08,SSW,193,0.0,0.0,95,0.00,,,0.00,VWS V14.01,2013-06-10 10:37:00,
2013-06-10 06:42:00,73.7,72.2,30.08,SSW,193,0.0,0.0,95,0.00,,,0.00,VWS V14.01,2013-06-10 10:42:00,
2013-06-10 06:47:00,73.7,72.2,30.08,SSW,193,0.0,0.0,95,0.00,,,0.00,VWS V14.01,2013-06-10 10:47:00,
2013-06-10 06:52:00,73.8,72.3,30.09,SSW,193,0.0,0.0,95,0.00,,,0.00,VWS V14.01,2013-06-10 10:52:00,
2013-06-10 06:57:00,73.9,72.4,30.09,SSW,193,0.0,0.0,95,0.00,,,0.00,VWS V14.01,2013-06-10 10:57:00,
2013-06-10 07:00:00,73.9,72.4,30.09,SSW,193,0.0,0.0,95,0.00,,BKN250,0.00,VWS V14.01,2013-06-10 11:00:00,
2013-06-10 07:02:00,74.0,72.5,30.09,SSW,193,0.0,0.0,95,0.00,,,0.00,VWS V14.01,2013-06-10 11:02:00,
2013-06-10 07:07:00,74.2,72.7,30.09,South,184,0.0,1.0,95,0.00,,,0.00,VWS V14.01,2013-06-10 11:07:00,
2013-06-10 07:12:00,74.3,73.1,30.09,South,183,0.0,1.0,96,0.00,,,0.00,VWS V14.01,2013-06-10 11:12:00,
2013-06-10 07:17:00,74.4,73.2,30.09,ESE,121,0.0,5.0,96,0.00,,,0.00,VWS V14.01,2013-06-10 11:17:00,
2013-06-10 07:22:00,74.5,73.3,30.09,ESE,115,2.0,5.0,96,0.00,,,0.00,VWS V14.01,2013-06-10 11:22:00,
2013-06-10 07:27:00,74.6,73.4,30.09,ESE,121,0.0,5.0,96,0.00,,,0.00,VWS V14.01,2013-06-10 11:27:00,
2013-06-10 07:30:00,74.7,73.5,30.09,ESE,114,0.0,5.0,96,0.00,,BKN250,0.00,VWS V14.01,2013-06-10 11:30:00,
2013-06-10 07:32:00,74.8,73.6,30.09,ESE,114,0.0,0.0,96,0.00,,,0.00,VWS V14.01,2013-06-10 11:32:00,
2013-06-10 07:37:00,75.0,73.8,30.09,East,100,4.0,4.0,96,0.00,,,0.00,VWS V14.01,2013-06-10 11:37:00,
2013-06-10 07:42:00,75.1,73.9,30.09,ESE,113,0.0,4.0,96,0.00,,,0.00,VWS V14.01,2013-06-10 11:42:00,
2013-06-10 07:47:00,75.4,74.2,30.09,ESE,113,0.0,4.0,96,0.00,,,0.00,VWS V14.01,2013-06-10 11:47:00,
2013-06-10 07:52:00,75.7,74.5,30.09,ESE,113,0.0,4.0,96,0.00,,,0.00,VWS V14.01,2013-06-10 11:52:00,
2013-06-10 07:57:00,75.9,74.7,30.10,SE,143,0.0,6.0,96,0.00,,,0.00,VWS V14.01,2013-06-10 11:57:00,
2013-06-10 08:00:00,76.0,74.8,30.10,SE,126,0.0,6.0,96,0.00,,BKN250,0.00,VWS V14.01,2013-06-10 12:00:00,
2013-06-10 08:02:00,76.1,74.9,30.10,SE,137,0.0,5.0,96,0.00,,,0.00,VWS V14.01,2013-06-10 12:02:00,
2013-06-10 08:07:00,76.2,75.0,30.10,ESE,115,1.0,6.0,96,0.00,,,0.00,VWS V14.01,2013-06-10 12:07:00,
2013-06-10 08:12:00,76.4,75.2,30.10,ESE,106,0.0,6.0,96,0.00,,,0.00,VWS V14.01,2013-06-10 12:12:00,
2013-06-10 08:17:00,76.6,75.4,30.10,ESE,110,0.0,6.0,96,0.00,,,0.00,VWS V14.01,2013-06-10 12:17:00,
2013-06-10 08:22:00,76.9,75.4,30.10,SE,140,0.0,6.0,95,0.00,,,0.00,VWS V14.01,2013-06-10 12:22:00,
2013-06-10 08:27:00,77.1,75.6,30.10,SE,138,0.0,7.0,95,0.00,,,0.00,VWS V14.01,2013-06-10 12:27:00,
2013-06-10 08:30:00,77.1,75.6,30.11,SE,143,7.0,9.0,95,0.00,,BKN250,0.00,VWS V14.01,2013-06-10 12:30:00,
2013-06-10 08:32:00,77.1,75.2,30.11,SSE,158,0.0,7.0,94,0.00,,,0.00,VWS V14.01,2013-06-10 12:32:00,
2013-06-10 08:37:00,77.3,75.4,30.11,SSE,152,0.0,7.0,94,0.00,,SCT250,0.00,VWS V14.01,2013-06-10 12:37:00,
2013-06-10 08:42:00,77.5,75.6,30.11,SSE,153,2.0,7.0,94,0.00,,SCT250,0.00,VWS V14.01,2013-06-10 12:42:00,
2013-06-10 08:47:00,77.8,75.9,30.11,SSE,147,0.0,7.0,94,0.00,,SCT250,0.00,VWS V14.01,2013-06-10 12:47:00,
2013-06-10 08:52:00,78.3,76.1,30.11,SSE,148,0.0,7.0,93,0.00,,SCT250,0.00,VWS V14.01,2013-06-10 12:52:00,
2013-06-10 08:57:00,78.8,76.3,30.12,East,93,0.0,8.0,92,0.00,,SCT250,0.00,VWS V14.01,2013-06-10 12:57:00,
2013-06-10 09:00:00,79.1,76.6,30.12,East,99,0.0,8.0,92,0.00,,BKN250,0.00,VWS V14.01,2013-06-10 13:00:00,
2013-06-10 09:02:00,79.3,76.4,30.12,SE,128,0.0,1.0,91,0.00,,SCT250,0.00,VWS V14.01,2013-06-10 13:02:00,
2013-06-10 09:07:00,79.6,76.4,30.12,SSE,150,0.0,6.0,90,0.00,,SCT250,0.00,VWS V14.01,2013-06-10 13:07:00,
2013-06-10 09:12:00,79.9,76.4,30.11,SSE,168,1.0,6.0,89,0.00,,SCT250,0.00,VWS V14.01,2013-06-10 13:12:00,
2013-06-10 09:17:00,80.2,76.3,30.12,ESE,103,0.0,7.0,88,0.00,,SCT250,0.00,VWS V14.01,2013-06-10 13:17:00,
2013-06-10 09:22:00,80.5,76.3,30.11,ESE,118,0.0,7.0,87,0.00,,SCT250,0.00,VWS V14.01,2013-06-10 13:22:00,
2013-06-10 09:27:00,80.9,76.3,30.12,SE,145,2.0,8.0,86,0.00,,SCT250,0.00,VWS V14.01,2013-06-10 13:27:00,
2013-06-10 09:30:00,80.9,76.3,30.12,SW,229,0.0,8.0,86,0.00,,BKN250,0.00,VWS V14.01,2013-06-10 13:30:00,
2013-06-10 09:32:00,81.2,76.6,30.12,SSE,162,4.0,4.0,86,0.00,,SCT250,0.00,VWS V14.01,2013-06-10 13:32:00,
2013-06-10 09:37:00,82.1,77.2,30.12,SE,129,0.0,7.0,85,0.00,,BKN009,0.00,VWS V14.01,2013-06-10 13:37:00,
2013-06-10 09:42:00,82.7,76.7,30.12,SSE,155,0.0,7.0,82,0.00,,BKN009,0.00,VWS V14.01,2013-06-10 13:42:00,
2013-06-10 09:47:00,82.9,76.5,30.12,SE,138,0.0,7.0,81,0.00,,BKN009,0.00,VWS V14.01,2013-06-10 13:47:00,
2013-06-10 09:52:00,82.8,76.0,30.12,SSW,211,3.0,7.0,80,0.00,,BKN013,0.00,VWS V14.01,2013-06-10 13:52:00,
2013-06-10 09:57:00,82.6,75.8,30.12,SSW,207,0.0,7.0,80,0.00,,BKN013,0.00,VWS V14.01,2013-06-10 13:57:00,
2013-06-10 10:00:00,82.7,75.9,30.12,South,184,0.0,7.0,80,0.00,,BKN250,0.00,VWS V14.01,2013-06-10 14:00:00,
2013-06-10 10:02:00,82.8,76.0,30.12,SW,217,1.0,5.0,80,0.00,,BKN013,0.00,VWS V14.01,2013-06-10 14:02:00,
2013-06-10 10:07:00,83.6,76.4,30.11,SW,216,0.0,5.0,79,0.00,,BKN013,0.00,VWS V14.01,2013-06-10 14:07:00,
2013-06-10 10:12:00,83.8,75.8,30.12,SSW,207,0.0,5.0,77,0.00,,BKN013,0.00,VWS V14.01,2013-06-10 14:12:00,
2013-06-10 10:17:00,84.0,75.6,30.11,SSW,192,0.0,5.0,76,0.00,,BKN013,0.00,VWS V14.01,2013-06-10 14:17:00,
2013-06-10 10:22:00,84.0,75.6,30.11,SE,143,1.0,5.0,76,0.00,,BKN013,0.00,VWS V14.01,2013-06-10 14:22:00,
2013-06-10 10:27:00,84.1,75.3,30.12,SE,124,0.0,6.0,75,0.00,,BKN013,0.00,VWS V14.01,2013-06-10 14:27:00,
2013-06-10 10:30:00,84.3,75.9,30.12,ESE,102,4.0,6.0,76,0.00,,BKN250,0.00,VWS V14.01,2013-06-10 14:30:00,
2013-06-10 10:32:00,84.6,75.4,30.11,ESE,116,4.0,7.0,74,0.00,,BKN013,0.00,VWS V14.01,2013-06-10 14:32:00,
2013-06-10 10:37:00,85.1,75.1,30.11,SSE,149,5.0,7.0,72,0.00,,BKN013,0.00,VWS V14.01,2013-06-10 14:37:00,
2013-06-10 10:42:00,85.9,75.4,30.11,East,86,0.0,7.0,71,0.00,,BKN013,0.00,VWS V14.01,2013-06-10 14:42:00,
2013-06-10 10:47:00,86.4,75.0,30.11,SW,221,1.0,7.0,69,0.00,,BKN013,0.00,VWS V14.01,2013-06-10 14:47:00,
2013-06-10 10:52:00,86.6,74.8,30.11,SE,127,0.0,7.0,68,0.00,,BKN013,0.00,VWS V14.01,2013-06-10 14:52:00,
2013-06-10 10:57:00,86.5,74.2,30.11,South,173,6.0,10.0,67,0.00,,BKN013,0.00,VWS V14.01,2013-06-10 14:57:00,
2013-06-10 11:00:00,86.5,74.2,30.11,SE,134,1.0,10.0,67,0.00,,BKN250,0.00,VWS V14.01,2013-06-10 15:00:00,
2013-06-10 11:02:00,86.7,74.4,30.11,SSE,167,0.0,8.0,67,0.00,,BKN013,0.00,VWS V14.01,2013-06-10 15:02:00,
2013-06-10 11:07:00,87.5,74.8,30.11,SW,215,0.0,8.0,66,0.00,,BKN013,0.00,VWS V14.01,2013-06-10 15:07:00,
2013-06-10 11:12:00,88.5,75.7,30.11,South,177,2.0,8.0,66,0.00,,BKN013,0.00,VWS V14.01,2013-06-10 15:12:00,
2013-06-10 11:17:00,88.5,74.8,30.11,SSE,163,1.0,8.0,64,0.00,,BKN013,0.00,VWS V14.01,2013-06-10 15:17:00,
2013-06-10 11:22:00,88.3,75.1,30.11,East,94,0.0,8.0,65,0.00,,BKN013,0.00,VWS V14.01,2013-06-10 15:22:00,
2013-06-10 11:27:00,88.4,75.6,30.11,SSE,158,0.0,8.0,66,0.00,,BKN013,0.00,VWS V14.01,2013-06-10 15:27:00,
2013-06-10 11:30:00,88.8,75.1,30.11,NE,38,4.0,8.0,64,0.00,,BKN250,0.00,VWS V14.01,2013-06-10 15:30:00,
2013-06-10 11:32:00,88.9,75.2,30.11,ESE,113,0.0,6.0,64,0.00,,BKN013,0.00,VWS V14.01,2013-06-10 15:32:00,
2013-06-10 11:37:00,89.0,74.8,30.11,ESE,121,1.0,7.0,63,0.00,,BKN025,0.00,VWS V14.01,2013-06-10 15:37:00,
2013-06-10 11:42:00,88.5,74.3,30.11,SSE,164,0.0,7.0,63,0.00,,BKN025,0.00,VWS V14.01,2013-06-10 15:42:00,
2013-06-10 11:47:00,89.1,74.9,30.11,ESE,103,1.0,7.0,63,0.00,,BKN025,0.00,VWS V14.01,2013-06-10 15:47:00,
2013-06-10 11:52:00,89.2,74.5,30.10,ESE,121,2.0,7.0,62,0.00,,BKN025,0.00,VWS V14.01,2013-06-10 15:52:00,
2013-06-10 11:57:00,89.5,74.8,30.10,South,171,1.0,7.0,62,0.00,,BKN025,0.00,VWS V14.01,2013-06-10 15:57:00,
2013-06-10 12:00:00,89.7,75.0,30.10,SW,233,0.0,7.0,62,0.00,,BKN250,0.00,VWS V14.01,2013-06-10 16:00:00,
2013-06-10 12:02:00,90.1,74.8,30.11,East,99,0.0,5.0,61,0.00,,BKN025,0.00,VWS V14.01,2013-06-10 16:02:00,
2013-06-10 12:07:00,89.9,74.2,30.10,East,88,1.0,5.0,60,0.00,,BKN025,0.00,VWS V14.01,2013-06-10 16:07:00,
2013-06-10 12:12:00,89.8,74.6,30.10,SE,142,0.0,5.0,61,0.00,,BKN025,0.00,VWS V14.01,2013-06-10 16:12:00,
2013-06-10 12:17:00,89.7,75.0,30.10,ENE,63,2.0,5.0,62,0.00,,BKN025,0.00,VWS V14.01,2013-06-10 16:17:00,
2013-06-10 12:22:00,90.0,74.8,30.10,SW,229,2.0,5.0,61,0.00,,BKN025,0.00,VWS V14.01,2013-06-10 16:22:00,
2013-06-10 12:27:00,90.5,74.2,30.10,SSE,160,0.0,6.0,59,0.00,,BKN025,0.00,VWS V14.01,2013-06-10 16:27:00,
2013-06-10 12:30:00,90.8,74.5,30.10,South,174,2.0,6.0,59,0.00,,BKN250,0.00,VWS V14.01,2013-06-10 16:30:00,
2013-06-10 12:32:00,91.1,74.3,30.10,SE,132,0.0,2.0,58,0.00,,BKN025,0.00,VWS V14.01,2013-06-10 16:32:00,
2013-06-10 12:37:00,91.2,74.9,30.09,ESE,123,1.0,7.0,59,0.00,,BKN032,0.00,VWS V14.01,2013-06-10 16:37:00,
2013-06-10 12:42:00,91.0,74.2,30.09,ESE,110,5.0,7.0,58,0.00,,BKN032,0.00,VWS V14.01,2013-06-10 16:42:00,
2013-06-10 12:47:00,90.5,74.7,30.09,ENE,65,0.0,7.0,60,0.00,,BKN032,0.00,VWS V14.01,2013-06-10 16:47:00,
2013-06-10 12:52:00,90.6,74.3,30.09,SSE,154,4.0,7.0,59,0.00,,BKN032,0.00,VWS V14.01,2013-06-10 16:52:00,
2013-06-10 12:57:00,91.1,75.8,30.09,ENE,76,0.0,7.0,61,0.00,,BKN032,0.00,VWS V14.01,2013-06-10 16:57:00,
2013-06-10 13:00:00,91.5,75.2,30.09,SW,234,4.0,7.0,59,0.00,,BKN250,0.00,VWS V14.01,2013-06-10 17:00:00,
2013-06-10 13:02:00,91.6,75.2,30.09,South,179,5.0,8.0,59,0.00,,BKN032,0.00,VWS V14.01,2013-06-10 17:02:00,
2013-06-10 13:07:00,91.4,75.1,30.09,SE,130,0.0,8.0,59,0.00,,BKN032,0.00,VWS V14.01,2013-06-10 17:07:00,
2013-06-10 13:12:00,90.9,73.6,30.09,SSE,148,1.0,8.0,57,0.00,,BKN032,0.00,VWS V14.01,2013-06-10 17:12:00,
2013-06-10 13:17:00,91.2,74.9,30.09,East,86,0.0,8.0,59,0.00,,BKN032,0.00,VWS V14.01,2013-06-10 17:17:00,
2013-06-10 13:22:00,91.4,75.1,30.08,ENE,78,0.0,8.0,59,0.00,,BKN032,0.00,VWS V14.01,2013-06-10 17:22:00,
2013-06-10 13:27:00,91.7,74.8,30.08,East,84,0.0,8.0,58,0.00,,BKN032,0.00,VWS V14.01,2013-06-10 17:27:00,
2013-06-10 13:30:00,92.2,75.3,30.08,ESE,109,5.0,8.0,58,0.00,,BKN250,0.00,VWS V14.01,2013-06-10 17:30:00,
2013-06-10 13:32:00,92.1,73.6,30.08,SSW,195,0.0,5.0,55,0.00,,BKN032,0.00,VWS V14.01,2013-06-10 17:32:00,
2013-06-10 13:37:00,92.5,73.4,30.08,South,169,0.0,5.0,54,0.00,,BKN038,0.00,VWS V14.01,2013-06-10 17:37:00,
2013-06-10 13:42:00,93.1,73.4,30.08,South,186,2.0,5.0,53,0.00,,BKN038,0.00,VWS V14.01,2013-06-10 17:42:00,
2013-06-10 13:47:00,94.5,74.7,30.08,West,266,1.0,5.0,53,0.00,,BKN038,0.00,VWS V14.01,2013-06-10 17:47:00,
2013-06-10 13:52:00,94.1,72.6,30.08,ENE,78,3.0,6.0,50,0.00,,BKN038,0.00,VWS V14.01,2013-06-10 17:52:00,
2013-06-10 13:57:00,92.8,73.2,30.07,SSE,159,2.0,6.0,53,0.00,,BKN038,0.00,VWS V14.01,2013-06-10 17:57:00,
2013-06-10 14:00:00,92.4,72.8,30.07,SE,138,1.0,6.0,53,0.00,,BKN250,0.00,VWS V14.01,2013-06-10 18:00:00,
2013-06-10 14:02:00,92.0,72.4,30.07,ESE,121,0.0,4.0,53,0.00,,BKN038,0.00,VWS V14.01,2013-06-10 18:02:00,
2013-06-10 14:07:00,91.5,73.1,30.07,SSE,152,0.0,4.0,55,0.00,,BKN038,0.00,VWS V14.01,2013-06-10 18:07:00,
2013-06-10 14:12:00,91.1,72.7,30.07,SSE,154,0.0,6.0,55,0.00,,BKN038,0.00,VWS V14.01,2013-06-10 18:12:00,
2013-06-10 14:17:00,91.4,73.0,30.07,SW,232,5.0,6.0,55,0.00,,BKN038,0.00,VWS V14.01,2013-06-10 18:17:00,
2013-06-10 14:22:00,92.5,72.9,30.07,SSE,157,0.0,6.0,53,0.00,,BKN038,0.00,VWS V14.01,2013-06-10 18:22:00,
2013-06-10 14:27:00,93.4,72.6,30.07,SE,144,0.0,6.0,51,0.00,,BKN038,0.00,VWS V14.01,2013-06-10 18:27:00,
2013-06-10 14:30:00,93.2,72.4,30.06,ESE,121,0.0,6.0,51,0.00,,BKN250,0.00,VWS V14.01,2013-06-10 18:30:00,
2013-06-10 14:32:00,93.1,72.9,30.07,SW,225,0.0,3.0,52,0.00,,BKN038,0.00,VWS V14.01,2013-06-10 18:32:00,
2013-06-10 14:38:00,93.5,72.7,30.06,SW,226,0.0,4.0,51,0.00,,BKN043,0.00,VWS V14.01,2013-06-10 18:38:00,
2013-06-10 14:43:00,93.9,72.4,30.06,SE,134,2.0,6.0,50,0.00,,BKN043,0.00,VWS V14.01,2013-06-10 18:43:00,
2013-06-10 14:48:00,94.1,72.6,30.05,NW,320,0.0,6.0,50,0.00,,BKN043,0.00,VWS V14.01,2013-06-10 18:48:00,
2013-06-10 14:53:00,94.3,74.0,30.06,SSE,161,4.0,8.0,52,0.00,,BKN043,0.00,VWS V14.01,2013-06-10 18:53:00,
2013-06-10 14:57:00,94.4,74.6,30.05,SSW,207,3.0,8.0,53,0.00,,BKN043,0.00,VWS V14.01,2013-06-10 18:57:00,
2013-06-10 15:00:00,94.5,73.0,30.05,SSW,207,1.0,8.0,50,0.00,,BKN250,0.00,VWS V14.01,2013-06-10 19:00:00,
2013-06-10 15:02:00,94.4,72.9,30.05,ESE,107,1.0,3.0,50,0.00,,BKN043,0.00,VWS V14.01,2013-06-10 19:02:00,
2013-06-10 15:07:00,93.7,72.8,30.05,ESE,118,0.0,5.0,51,0.00,,BKN043,0.00,VWS V14.01,2013-06-10 19:07:00,
2013-06-10 15:12:00,92.4,75.0,30.05,SSE,161,7.0,12.0,57,0.00,,BKN043,0.00,VWS V14.01,2013-06-10 19:12:00,
2013-06-10 15:17:00,90.6,75.3,30.06,ESE,107,7.0,15.0,61,0.00,,BKN043,0.00,VWS V14.01,2013-06-10 19:17:00,
2013-06-10 15:22:00,88.8,74.1,30.06,SSE,151,0.0,15.0,62,0.00,,BKN043,0.00,VWS V14.01,2013-06-10 19:22:00,
2013-06-10 15:27:00,87.3,74.1,30.05,SE,132,2.0,15.0,65,0.00,,BKN043,0.00,VWS V14.01,2013-06-10 19:27:00,
2013-06-10 15:30:00,86.3,73.2,30.06,SSE,156,4.0,15.0,65,0.01,,BKN250,0.01,VWS V14.01,2013-06-10 19:30:00,
2013-06-10 15:32:00,85.2,74.3,30.06,SSE,162,0.0,7.0,70,0.03,,BKN043,0.03,VWS V14.01,2013-06-10 19:32:00,
2013-06-10 15:37:00,84.9,76.1,30.05,SSE,150,0.0,7.0,75,0.03,,BKN200,0.03,VWS V14.01,2013-06-10 19:37:00,
2013-06-10 15:42:00,85.4,78.5,30.05,SSE,147,0.0,7.0,80,0.03,,BKN200,0.03,VWS V14.01,2013-06-10 19:42:00,
2013-06-10 15:47:00,85.6,78.0,30.05,SSE,147,0.0,7.0,78,0.03,,BKN200,0.03,VWS V14.01,2013-06-10 19:47:00,
2013-06-10 15:52:00,85.9,77.1,30.05,SE,136,0.0,7.0,75,0.03,,BKN200,0.03,VWS V14.01,2013-06-10 19:52:00,
2013-06-10 15:57:00,87.0,78.1,30.05,ENE,65,1.0,7.0,75,0.03,,BKN200,0.03,VWS V14.01,2013-06-10 19:57:00,
2013-06-10 16:00:00,87.3,76.8,30.05,ENE,57,3.0,7.0,71,0.03,,BKN250,0.03,VWS V14.01,2013-06-10 20:00:00,
2013-06-10 16:02:00,87.6,77.0,30.05,ENE,74,2.0,5.0,71,0.03,,BKN200,0.03,VWS V14.01,2013-06-10 20:02:00,
2013-06-10 16:07:00,87.8,75.5,30.04,ENE,73,0.0,7.0,67,0.03,,BKN200,0.03,VWS V14.01,2013-06-10 20:07:00,
2013-06-10 16:12:00,88.1,75.3,30.04,SSE,147,0.0,7.0,66,0.03,,BKN200,0.03,VWS V14.01,2013-06-10 20:12:00,
2013-06-10 16:17:00,88.9,75.2,30.03,East,86,0.0,7.0,64,0.03,,BKN200,0.03,VWS V14.01,2013-06-10 20:17:00,
2013-06-10 16:22:00,89.2,75.9,30.03,ESE,115,0.0,7.0,65,0.03,,BKN200,0.03,VWS V14.01,2013-06-10 20:22:00,
2013-06-10 16:27:00,89.9,75.1,30.03,SSE,157,0.0,7.0,62,0.03,,BKN200,0.03,VWS V14.01,2013-06-10 20:27:00,
2013-06-10 16:30:00,90.2,75.9,30.03,ESE,119,2.0,7.0,63,0.03,,BKN250,0.03,VWS V14.01,2013-06-10 20:30:00,
2013-06-10 16:32:00,90.6,75.8,30.03,ESE,123,2.0,4.0,62,0.02,,BKN200,0.03,VWS V14.01,2013-06-10 20:32:00,
2013-06-10 16:37:00,91.0,75.2,30.03,SSE,161,1.0,6.0,60,0.02,,BKN250,0.03,VWS V14.01,2013-06-10 20:37:00,
2013-06-10 16:42:00,91.2,74.9,30.03,East,96,2.0,6.0,59,0.02,,BKN250,0.03,VWS V14.01,2013-06-10 20:42:00,
2013-06-10 16:47:00,91.3,73.9,30.03,ENE,72,0.0,6.0,57,0.02,,BKN250,0.03,VWS V14.01,2013-06-10 20:47:00,
2013-06-10 16:52:00,91.2,73.8,30.03,ENE,72,1.0,6.0,57,0.02,,BKN250,0.03,VWS V14.01,2013-06-10 20:52:00,
2013-06-10 16:57:00,91.3,75.0,30.03,ENE,73,0.0,6.0,59,0.02,,BKN250,0.03,VWS V14.01,2013-06-10 20:57:00,
2013-06-10 17:00:00,91.3,74.5,30.03,ENE,73,0.0,6.0,58,0.02,,BKN250,0.03,VWS V14.01,2013-06-10 21:00:00,
2013-06-10 17:02:00,91.2,73.8,30.03,ENE,73,0.0,1.0,57,0.00,,BKN250,0.03,VWS V14.01,2013-06-10 21:02:00,
2013-06-10 17:07:00,90.8,74.0,30.04,ENE,73,0.0,2.0,58,0.00,,BKN250,0.03,VWS V14.01,2013-06-10 21:07:00,
2013-06-10 17:12:00,90.2,72.4,30.04,ENE,73,0.0,2.0,56,0.00,,BKN250,0.03,VWS V14.01,2013-06-10 21:12:00,
2013-06-10 17:17:00,90.1,72.8,30.04,ENE,73,0.0,2.0,57,0.00,,BKN250,0.03,VWS V14.01,2013-06-10 21:17:00,
2013-06-10 17:22:00,90.0,73.2,30.03,ENE,73,0.0,2.0,58,0.00,,BKN250,0.03,VWS V14.01,2013-06-10 21:22:00,
2013-06-10 17:27:00,89.9,74.7,30.03,ENE,73,0.0,2.0,61,0.00,,BKN250,0.03,VWS V14.01,2013-06-10 21:27:00,
2013-06-10 17:30:00,89.9,75.1,30.03,ENE,73,0.0,2.0,62,0.00,,BKN250,0.03,VWS V14.01,2013-06-10 21:30:00,
2013-06-10 17:32:00,89.8,74.1,30.03,ESE,102,0.0,5.0,60,0.00,,BKN250,0.03,VWS V14.01,2013-06-10 21:32:00,
2013-06-10 17:37:00,89.5,74.8,30.03,East,98,0.0,5.0,62,0.00,,BKN250,0.03,VWS V14.01,2013-06-10 21:37:00,
2013-06-10 17:42:00,89.4,74.7,30.02,NE,53,1.0,5.0,62,0.00,,BKN250,0.03,VWS V14.01,2013-06-10 21:42:00,
2013-06-10 17:47:00,89.3,74.6,30.01,NE,56,2.0,5.0,62,0.00,,BKN250,0.03,VWS V14.01,2013-06-10 21:47:00,
2013-06-10 17:52:00,89.2,74.5,30.01,ENE,74,0.0,5.0,62,0.00,,BKN250,0.03,VWS V14.01,2013-06-10 21:52:00,
2013-06-10 17:57:00,89.0,73.8,30.01,NE,43,0.0,5.0,61,0.00,,BKN250,0.03,VWS V14.01,2013-06-10 21:57:00,
2013-06-10 18:00:00,89.0,73.8,30.01,NE,51,0.0,5.0,61,0.00,,BKN250,0.03,VWS V14.01,2013-06-10 22:00:00,
2013-06-10 18:02:00,88.8,73.6,30.01,NE,53,2.0,3.0,61,0.00,,BKN250,0.03,VWS V14.01,2013-06-10 22:02:00,
2013-06-10 18:07:00,88.7,74.0,30.02,NE,53,0.0,3.0,62,0.00,,BKN250,0.03,VWS V14.01,2013-06-10 22:07:00,
2013-06-10 18:12:00,88.5,73.8,30.02,NE,53,0.0,3.0,62,0.00,,BKN250,0.03,VWS V14.01,2013-06-10 22:12:00,
2013-06-10 18:17:00,88.5,74.3,30.02,NE,53,0.0,3.0,63,0.00,,BKN250,0.03,VWS V14.01,2013-06-10 22:17:00,
2013-06-10 18:22:00,88.5,74.3,30.02,NE,53,0.0,3.0,63,0.00,,BKN250,0.03,VWS V14.01,2013-06-10 22:22:00,
2013-06-10 18:27:00,88.4,74.7,30.03,NE,53,0.0,3.0,64,0.00,,BKN250,0.03,VWS V14.01,2013-06-10 22:27:00,
2013-06-10 18:30:00,88.4,74.7,30.03,NE,53,0.0,3.0,64,0.00,,BKN250,0.03,VWS V14.01,2013-06-10 22:30:00,
2013-06-10 18:32:00,88.3,73.6,30.03,NE,53,0.0,0.0,62,0.00,,BKN250,0.03,VWS V14.01,2013-06-10 22:32:00,
2013-06-10 18:37:00,88.3,74.6,30.03,NE,53,0.0,0.0,64,0.00,,BKN250,0.03,VWS V14.01,2013-06-10 22:37:00,
2013-06-10 18:42:00,88.2,74.5,30.03,NE,53,0.0,0.0,64,0.00,,BKN250,0.03,VWS V14.01,2013-06-10 22:42:00,
2013-06-10 18:47:00,88.1,75.3,30.03,NE,53,0.0,0.0,66,0.00,,BKN250,0.03,VWS V14.01,2013-06-10 22:47:00,
2013-06-10 18:52:00,87.9,75.1,30.04,NE,53,0.0,0.0,66,0.00,,BKN250,0.03,VWS V14.01,2013-06-10 22:52:00,
2013-06-10 18:57:00,87.7,74.9,30.04,SSW,198,0.0,2.0,66,0.00,,BKN250,0.03,VWS V14.01,2013-06-10 22:57:00,
2013-06-10 19:00:00,87.4,75.6,30.05,SSW,210,8.0,13.0,68,0.00,,BKN250,0.03,VWS V14.01,2013-06-10 23:00:00,
2013-06-10 19:02:00,86.6,75.7,30.05,West,263,0.0,8.0,70,0.00,,BKN250,0.03,VWS V14.01,2013-06-10 23:02:00,
2013-06-10 19:07:00,85.0,75.0,30.05,NNW,328,2.0,11.0,72,0.00,,BKN250,0.03,VWS V14.01,2013-06-10 23:07:00,
2013-06-10 19:12:00,83.9,74.7,30.06,WSW,240,0.0,11.0,74,0.00,,BKN250,0.03,VWS V14.01,2013-06-10 23:12:00,
2013-06-10 19:17:00,82.9,74.9,30.07,WSW,240,0.0,11.0,77,0.00,,BKN250,0.03,VWS V14.01,2013-06-10 23:17:00,
2013-06-10 19:22:00,81.9,75.1,30.06,West,271,0.0,11.0,80,0.00,,BKN250,0.03,VWS V14.01,2013-06-10 23:22:00,
2013-06-10 19:27:00,81.2,75.2,30.07,NNE,18,0.0,11.0,82,0.00,,BKN250,0.03,VWS V14.01,2013-06-10 23:27:00,
2013-06-10 19:30:00,81.1,75.1,30.07,NW,323,2.0,11.0,82,0.00,,BKN250,0.03,VWS V14.01,2013-06-10 23:30:00,
2013-06-10 19:32:00,80.4,73.3,30.09,NE,53,1.0,7.0,79,0.00,,BKN250,0.03,VWS V14.01,2013-06-10 23:32:00,
2013-06-10 19:37:00,79.7,73.7,30.08,NNE,33,3.0,7.0,82,0.00,,-RA,0.03,VWS V14.01,2013-06-10 23:37:00,
2013-06-10 19:42:00,78.9,73.3,30.08,ENE,65,5.0,7.0,83,0.01,,-RA,0.04,VWS V14.01,2013-06-10 23:42:00,
2013-06-10 19:47:00,77.4,71.8,30.09,ESE,106,2.0,10.0,83,0.02,,-RA,0.05,VWS V14.01,2013-06-10 23:47:00,
2013-06-10 19:52:00,76.2,71.4,30.09,ESE,117,0.0,10.0,85,0.03,,-RA,0.06,VWS V14.01,2013-06-10 23:52:00,
2013-06-10 19:57:00,75.8,71.3,30.08,ESE,117,0.0,10.0,86,0.05,,-RA,0.08,VWS V14.01,2013-06-10 23:57:00,
2013-06-10 20:00:00,75.7,71.6,30.08,ESE,117,0.0,10.0,87,0.05,,BKN250,0.08,VWS V14.01,2013-06-11 00:00:00,
2013-06-10 20:02:00,75.6,71.5,30.07,ESE,117,1.0,1.0,87,0.06,,-RA,0.09,VWS V14.01,2013-06-11 00:02:00,
2013-06-10 20:07:00,75.3,71.5,30.06,ESE,117,0.0,2.0,88,0.07,,OVC150,0.10,VWS V14.01,2013-06-11 00:07:00,
2013-06-10 20:12:00,75.2,71.7,30.06,ESE,117,0.0,2.0,89,0.08,,OVC150,0.11,VWS V14.01,2013-06-11 00:12:00,
2013-06-10 20:17:00,74.9,71.8,30.06,ESE,117,0.0,2.0,90,0.08,,OVC150,0.11,VWS V14.01,2013-06-11 00:17:00,
2013-06-10 20:22:00,74.7,71.6,30.06,ESE,116,0.0,2.0,90,0.08,,OVC150,0.11,VWS V14.01,2013-06-11 00:22:00,
2013-06-10 20:27:00,74.5,71.4,30.07,ESE,116,0.0,2.0,90,0.08,,OVC150,0.11,VWS V14.01,2013-06-11 00:27:00,
2013-06-10 20:30:00,74.4,71.3,30.07,ESE,117,0.0,2.0,90,0.08,,BKN250,0.11,VWS V14.01,2013-06-11 00:30:00,
2013-06-10 20:32:00,74.4,71.6,30.07,ESE,117,0.0,1.0,91,0.08,,OVC150,0.11,VWS V14.01,2013-06-11 00:32:00,
2013-06-10 20:37:00,74.3,71.5,30.07,ESE,117,0.0,1.0,91,0.08,,OVC150,0.11,VWS V14.01,2013-06-11 00:37:00,
2013-06-10 20:42:00,74.4,71.6,30.06,ESE,117,0.0,1.0,91,0.08,,OVC150,0.11,VWS V14.01,2013-06-11 00:42:00,
2013-06-10 20:47:00,74.4,71.9,30.06,ESE,117,0.0,1.0,92,0.09,,OVC150,0.12,VWS V14.01,2013-06-11 00:47:00,
2013-06-10 20:52:00,74.4,71.9,30.06,ESE,117,0.0,1.0,92,0.09,,OVC150,0.12,VWS V14.01,2013-06-11 00:52:00,
2013-06-10 20:57:00,74.4,71.9,30.07,ESE,117,0.0,1.0,92,0.09,,OVC150,0.12,VWS V14.01,2013-06-11 00:57:00,
2013-06-10 21:00:00,74.4,71.9,30.07,ESE,117,0.0,1.0,92,0.09,,BKN250,0.12,VWS V14.01,2013-06-11 01:00:00,
2013-06-10 21:02:00,74.3,71.8,30.07,ESE,117,0.0,1.0,92,0.04,,OVC150,0.12,VWS V14.01,2013-06-11 01:02:00,
2013-06-10 21:07:00,74.2,71.7,30.07,ESE,117,0.0,1.0,92,0.04,,OVC150,0.12,VWS V14.01,2013-06-11 01:07:00,
2013-06-10 21:12:00,74.1,71.6,30.07,ESE,117,0.0,1.0,92,0.04,,OVC150,0.12,VWS V14.01,2013-06-11 01:12:00,
2013-06-10 21:17:00,74.1,71.6,30.08,ESE,117,0.0,1.0,92,0.04,,OVC150,0.12,VWS V14.01,2013-06-11 01:17:00,
2013-06-10 21:22:00,74.2,71.7,30.07,ESE,117,0.0,1.0,92,0.04,,OVC150,0.12,VWS V14.01,2013-06-11 01:22:00,
2013-06-10 21:27:00,74.5,72.3,30.08,ESE,117,0.0,1.0,93,0.04,,OVC150,0.12,VWS V14.01,2013-06-11 01:27:00,
2013-06-10 21:30:00,74.5,72.3,30.08,ESE,117,0.0,1.0,93,0.04,,BKN250,0.12,VWS V14.01,2013-06-11 01:30:00,
2013-06-10 21:32:00,74.4,72.2,30.08,ESE,117,0.0,0.0,93,0.01,,OVC150,0.12,VWS V14.01,2013-06-11 01:32:00,
2013-06-10 21:37:00,74.4,72.2,30.08,ESE,117,0.0,0.0,93,0.01,,BKN250,0.12,VWS V14.01,2013-06-11 01:37:00,
2013-06-10 21:42:00,74.4,72.2,30.08,ESE,117,0.0,0.0,93,0.01,,BKN250,0.12,VWS V14.01,2013-06-11 01:42:00,
2013-06-10 21:47:00,74.6,72.4,30.08,ESE,117,0.0,1.0,93,0.01,,BKN250,0.12,VWS V14.01,2013-06-11 01:47:00,
2013-06-10 21:52:00,74.6,72.4,30.08,ESE,117,0.0,1.0,93,0.01,,BKN250,0.12,VWS V14.01,2013-06-11 01:52:00,
2013-06-10 21:57:00,74.7,72.6,30.09,ESE,117,0.0,1.0,93,0.01,,BKN250,0.12,VWS V14.01,2013-06-11 01:57:00,
2013-06-10 22:00:00,74.7,72.9,30.08,ESE,117,0.0,1.0,94,0.01,,BKN250,0.12,VWS V14.01,2013-06-11 02:00:00,
2013-06-10 22:02:00,74.8,73.0,30.08,ESE,117,0.0,0.0,94,0.00,,BKN250,0.12,VWS V14.01,2013-06-11 02:02:00,
2013-06-10 22:07:00,74.8,73.0,30.08,ESE,117,0.0,1.0,94,0.00,,BKN250,0.12,VWS V14.01,2013-06-11 02:07:00,
2013-06-10 22:12:00,74.9,73.1,30.08,ESE,117,0.0,1.0,94,0.00,,BKN250,0.12,VWS V14.01,2013-06-11 02:12:00,
2013-06-10 22:17:00,74.9,73.1,30.09,ESE,117,0.0,1.0,94,0.00,,BKN250,0.12,VWS V14.01,2013-06-11 02:17:00,
2013-06-10 22:22:00,74.8,73.0,30.09,ESE,117,0.0,1.0,94,0.00,,BKN250,0.12,VWS V14.01,2013-06-11 02:22:00,
2013-06-10 22:27:00,74.8,73.0,30.09,ESE,117,0.0,1.0,94,0.00,,BKN250,0.12,VWS V14.01,2013-06-11 02:27:00,
2013-06-10 22:30:00,74.9,73.1,30.09,ESE,117,0.0,1.0,94,0.00,,BKN250,0.12,VWS V14.01,2013-06-11 02:30:00,
2013-06-10 22:32:00,74.8,73.0,30.09,ESE,117,0.0,0.0,94,0.00,,BKN250,0.12,VWS V14.01,2013-06-11 02:32:00,
2013-06-10 22:37:00,74.9,73.1,30.10,ESE,117,0.0,0.0,94,0.00,,BKN250,0.12,VWS V14.01,2013-06-11 02:37:00,
2013-06-10 22:42:00,74.9,73.1,30.10,ESE,116,0.0,1.0,94,0.00,,BKN250,0.12,VWS V14.01,2013-06-11 02:42:00,
2013-06-10 22:47:00,74.9,73.1,30.10,ESE,117,0.0,1.0,94,0.00,,BKN250,0.12,VWS V14.01,2013-06-11 02:47:00,
2013-06-10 22:52:00,74.9,73.1,30.10,ESE,117,0.0,1.0,94,0.00,,BKN250,0.12,VWS V14.01,2013-06-11 02:52:00,
2013-06-10 22:57:00,74.9,73.1,30.10,ESE,117,0.0,1.0,94,0.00,,BKN250,0.12,VWS V14.01,2013-06-11 02:57:00,
2013-06-10 23:00:00,74.9,73.4,30.10,ESE,117,0.0,1.0,95,0.00,,BKN250,0.12,VWS V14.01,2013-06-11 03:00:00,
2013-06-10 23:02:00,74.9,73.1,30.10,ESE,117,0.0,0.0,94,0.00,,BKN250,0.12,VWS V14.01,2013-06-11 03:02:00,
2013-06-10 23:07:00,74.9,73.1,30.10,ESE,117,0.0,0.0,94,0.00,,BKN250,0.12,VWS V14.01,2013-06-11 03:07:00,
2013-06-10 23:12:00,74.8,73.0,30.10,ESE,117,0.0,0.0,94,0.00,,BKN250,0.12,VWS V14.01,2013-06-11 03:12:00,
2013-06-10 23:17:00,74.8,73.0,30.10,ESE,117,0.0,0.0,94,0.00,,BKN250,0.12,VWS V14.01,2013-06-11 03:17:00,
2013-06-10 23:22:00,74.8,73.0,30.10,ESE,117,0.0,0.0,94,0.00,,BKN250,0.12,VWS V14.01,2013-06-11 03:22:00,
2013-06-10 23:27:00,74.8,73.3,30.11,ESE,117,0.0,0.0,95,0.00,,BKN250,0.12,VWS V14.01,2013-06-11 03:27:00,
2013-06-10 23:30:00,74.9,73.4,30.11,ESE,117,0.0,0.0,95,0.00,,BKN250,0.12,VWS V14.01,2013-06-11 03:30:00,
2013-06-10 23:32:00,74.8,73.3,30.11,ESE,117,0.0,0.0,95,0.00,,BKN250,0.12,VWS V14.01,2013-06-11 03:32:00,
2013-06-10 23:37:00,74.8,73.3,30.10,ESE,117,0.0,0.0,95,0.00,,OVC039,0.12,VWS V14.01,2013-06-11 03:37:00,
2013-06-10 23:42:00,74.8,73.3,30.10,ESE,117,0.0,1.0,95,0.00,,OVC039,0.12,VWS V14.01,2013-06-11 03:42:00,
2013-06-10 23:47:00,74.7,73.2,30.10,ESE,117,0.0,1.0,95,0.00,,OVC039,0.12,VWS V14.01,2013-06-11 03:47:00,
2013-06-10 23:52:00,74.6,73.1,30.10,ESE,117,0.0,1.0,95,0.00,,BKN055,0.12,VWS V14.01,2013-06-11 03:52:00,
2013-06-10 23:57:00,74.5,73.0,30.10,ESE,117,0.0,1.0,95,0.00,,BKN055,0.12,VWS V14.01,2013-06-11 03:57:00,